Orbital Elements at Epoch 2459000.5 (2020-May-31.0) TDB
Reference: JPL 6 (heliocentric ecliptic J2000)
Element | Value | Uncertainty (1-sigma) | Units |
e | .1946126798703591 | 3.0023e-07 | |
a | 2.607867036266419 | 3.2126e-08 | au |
q | 2.10034304359304 | 7.6107e-07 | au |
i | 5.704840269308711 | 1.2377e-05 | deg |
node | 211.4721541073172 | 5.9567e-05 | deg |
peri | 358.53107034 | 6.5199e-05 | deg |
M | 103.4590630331511 | 1.5225e-05 | deg |
tp | 2458558.428380768438 (2019-Mar-15.92838077) | 6.4837e-05 | TDB |
period | 1538.248832510378 4.21 | 2.8424e-05 7.782e-08 | d yr |
n | .2340323570488204 | 4.3245e-09 | deg/d |
Q | 3.115391028939798 | 3.8378e-08 | au |
|
| | Orbit Determination Parameters
Additional Information
|